Theta_e
307 309 309 310 310 310 309 309 310 310 311 311 308 308 311 312 304 301 312 317 314 317 321 325 328 329 327 326 325 325 329 331 334 335 336 337 337 338 339 341 342 342 343 343 343 344 346 350 350 352 354 356 355 356 359 363 363 364 363 361 361 362 363 363 363 364 364 369 367 365 364 364 364 363 364 366 364 361 360 357 351 351 352 352 355 354 353
308 310 309 310 310 309 309 308 309 311 311 311 312 311 312 311 311 317 316 317 318 320 325 328 330 332 331 327 328 328 327 328 333 333 333 334 335 336 338 339 340 341 342 343 343 344 343 345 348 349 351 352 352 350 353 354 357 360 364 362 361 358 358 360 363 363 364 366 365 364 363 362 361 362 363 362 362 362 362 362 360 360 358 356 355 355 353
306 310 310 309 309 308 307 308 308 309 310 310 312 313 312 312 313 317 317 315 317 325 330 330 332 333 333 331 329 327 325 326 329 332 331 333 335 336 338 337 338 339 340 340 341 340 341 342 343 345 345 348 353 354 354 356 356 356 359 357 358 357 356 363 365 365 363 364 364 363 362 362 363 362 361 360 361 363 361 361 361 361 360 356 353 354 353
303 308 308 308 310 309 308 307 308 309 310 308 311 310 313 313 310 316 316 315 317 324 328 330 330 330 329 328 328 329 329 328 327 328 331 332 333 334 335 336 336 337 338 338 338 339 340 340 341 342 343 346 349 349 350 353 355 357 357 358 357 357 356 357 358 356 357 359 360 360 361 360 360 360 361 361 361 362 361 358 361 360 360 356 356 356 356
300 307 307 306 307 307 303 304 308 310 311 312 314 313 315 315 316 313 311 312 321 325 329 326 326 327 327 327 327 327 328 330 330 330 330 331 332 333 334 334 335 336 336 337 338 338 339 340 341 342 343 342 343 344 345 347 350 354 356 358 356 356 355 356 356 354 353 353 353 354 356 358 359 359 359 358 359 357 358 358 356 355 356 356 355 357 356
301 304 306 307 303 296 299 312 314 312 310 311 309 308 312 317 319 316 317 322 324 326 327 325 324 326 326 327 329 330 329 328 329 330 331 331 332 333 333 334 335 336 336 337 337 338 339 340 341 343 344 344 345 348 349 349 349 351 354 356 355 352 352 354 351 350 350 350 349 350 352 354 354 353 352 352 351 353 355 357 355 354 355 356 357 359 356
300 303 305 300 295 297 310 317 316 316 315 314 311 311 316 319 320 320 321 322 320 323 327 328 327 327 328 330 329 329 330 331 330 330 331 332 332 332 332 333 334 335 337 337 338 338 339 340 342 343 343 345 346 347 350 350 350 351 354 354 351 352 351 350 350 350 349 347 347 350 351 349 349 349 349 348 348 350 351 352 355 354 354 354 354 353 352
304 301 302 292 295 307 312 315 317 317 315 314 312 310 316 319 321 324 324 323 323 326 327 328 329 328 329 329 330 330 330 330 328 328 329 331 332 331 332 332 334 335 335 337 338 339 341 341 341 342 342 345 346 347 350 349 349 350 349 349 349 350 350 349 348 349 348 345 343 345 345 344 344 348 348 348 349 350 349 350 354 353 351 351 349 350 352
297 300 299 298 308 307 309 310 312 312 309 309 308 303 309 319 324 324 322 323 326 326 327 328 327 329 328 326 328 331 330 330 330 329 329 331 332 332 333 334 333 336 339 339 340 340 340 341 341 341 342 343 343 343 344 344 345 345 345 344 346 347 348 348 349 350 349 347 344 345 344 345 345 346 346 346 347 348 346 347 348 348 346 346 348 350 346
305 299 298 298 300 298 304 311 316 318 316 316 316 313 314 320 322 324 322 322 323 326 326 327 328 327 323 319 321 329 329 330 329 330 331 331 333 333 333 335 334 335 338 339 339 340 340 341 342 343 343 344 344 343 342 344 343 343 343 343 345 345 345 347 348 348 348 348 347 345 343 342 342 342 344 345 346 348 347 346 343 342 342 341 342 344 342
301 300 297 296 295 302 310 313 315 316 317 316 318 310 304 317 322 322 321 321 322 323 324 324 325 321 315 316 321 327 329 330 330 328 329 330 331 332 331 331 332 332 336 337 338 339 339 339 341 344 344 344 342 341 340 340 340 339 339 341 342 342 344 346 346 346 346 346 347 346 344 344 344 343 343 343 345 345 343 341 340 340 340 337 336 336 337
300 299 296 296 301 305 311 313 312 315 317 316 313 299 300 315 321 322 321 321 320 321 323 323 320 317 314 318 322 328 328 328 328 327 326 327 330 328 329 330 332 333 337 338 336 335 335 336 338 340 341 341 341 340 341 341 340 340 340 341 343 345 346 346 346 345 344 345 345 344 343 343 345 344 344 343 341 339 337 336 335 335 335 333 331 332 333
301 300 298 300 304 312 314 312 314 315 317 313 301 296 309 321 323 324 322 322 322 323 323 323 319 320 323 328 329 331 330 330 329 327 327 327 327 327 328 329 333 330 331 333 332 334 336 337 337 338 338 337 338 339 340 339 339 341 344 345 345 346 346 345 345 345 346 345 344 344 344 343 344 343 343 341 340 337 335 334 333 332 331 330 328 327 328
298 300 298 299 305 313 316 316 314 317 312 300 300 313 324 324 324 323 325 321 322 324 323 323 324 326 328 328 330 329 329 328 329 328 326 326 326 327 329 330 330 328 328 329 333 334 334 334 335 336 336 336 336 336 336 335 338 343 344 344 345 346 344 343 343 344 344 345 345 344 343 342 341 340 341 340 338 336 335 333 331 330 329 328 327 327 328
302 302 298 295 291 311 317 316 315 318 308 310 318 322 323 324 324 324 322 322 321 322 322 325 328 327 326 327 327 325 325 324 323 322 323 324 323 323 324 326 327 326 326 326 328 329 330 332 334 334 333 333 333 333 331 332 333 335 337 340 344 344 344 342 343 343 342 341 341 341 341 341 340 339 339 337 337 336 335 333 332 331 331 331 330 330 330
298 299 297 295 307 314 317 315 311 317 319 322 324 322 319 322 323 325 328 326 326 327 327 327 328 328 326 326 326 325 325 323 321 321 322 323 326 325 325 326 327 327 326 326 327 328 330 331 332 332 332 331 331 330 330 333 331 332 334 334 335 333 335 339 340 339 338 338 339 340 340 340 339 338 338 338 338 338 337 334 333 332 332 333 333 329 326
304 303 307 312 320 316 319 320 321 322 323 326 325 324 322 321 324 328 326 327 328 329 327 327 328 326 327 326 325 324 323 322 320 319 320 320 322 321 322 323 327 327 326 326 326 328 330 331 332 333 332 330 329 329 331 336 336 333 331 332 333 330 329 328 329 330 333 337 337 336 335 336 337 337 336 338 337 339 338 335 334 334 335 333 331 328 327
313 313 315 318 316 316 319 321 321 322 324 324 323 324 322 325 326 328 325 328 328 328 329 326 327 328 326 325 325 322 322 320 320 322 322 322 322 322 322 323 323 323 324 326 325 324 326 327 328 333 330 330 331 331 333 336 334 334 332 332 331 329 325 324 324 326 326 327 329 332 332 332 333 336 335 335 336 338 335 332 334 334 334 333 331 330 326
304 299 315 313 313 315 315 318 321 324 324 325 323 325 328 328 327 328 326 328 328 328 330 328 328 329 331 329 326 325 323 321 321 319 320 320 320 321 321 323 325 324 324 324 326 327 327 329 330 329 329 329 332 336 337 333 333 337 335 333 333 330 328 321 323 323 323 322 326 328 329 329 329 329 333 332 329 328 327 327 326 325 325 327 327 325 324
306 306 313 315 317 319 318 319 320 320 324 325 326 330 332 331 331 329 328 329 328 328 327 327 328 327 326 321 319 319 320 321 322 324 323 322 320 323 325 324 324 323 323 324 324 325 326 327 328 329 330 331 332 332 330 330 331 335 336 335 325 326 323 324 325 320 319 321 320 321 323 323 322 323 325 324 321 319 320 322 325 325 324 326 325 325 323
309 313 314 317 319 319 318 319 321 323 325 326 327 329 330 330 329 328 327 327 327 327 327 328 328 326 323 319 319 317 316 317 319 322 324 326 326 327 325 325 327 327 324 323 324 323 324 326 327 328 328 328 330 332 334 335 338 334 333 330 328 324 324 323 323 329 320 319 316 317 319 320 317 315 316 322 323 319 315 313 314 317 325 322 323 321 322
304 306 309 313 308 308 313 315 318 325 328 329 328 329 328 328 329 328 324 325 328 327 327 326 325 324 321 319 320 318 319 320 322 323 324 325 325 327 328 328 328 328 329 329 327 326 327 329 328 328 328 330 332 331 334 336 337 336 336 335 329 324 324 324 326 324 325 323 322 320 316 317 318 317 313 303 310 319 316 310 301 297 306 317 317 323 318
304 311 312 321 318 316 316 319 321 328 329 329 327 329 327 327 330 329 326 324 324 326 327 327 326 324 321 321 322 322 321 321 323 324 326 326 326 326 327 327 328 329 329 329 328 328 329 331 330 330 330 328 330 330 333 334 334 336 336 335 334 326 328 328 328 329 325 324 326 328 323 321 321 321 318 318 297 298 307 305 299 295 294 295 300 305 322
312 314 313 318 317 314 316 319 326 328 330 329 327 328 329 330 330 328 328 327 327 331 328 327 328 324 323 322 323 321 321 322 323 325 327 327 328 329 330 330 330 330 330 331 331 331 331 331 330 331 329 330 333 330 331 331 333 334 334 335 333 328 327 329 334 331 329 331 329 329 330 330 328 326 321 320 318 302 295 300 299 295 294 293 294 296 297
313 317 317 319 320 319 321 327 327 329 328 327 325 327 330 329 329 329 328 329 329 331 328 327 328 327 324 323 323 322 322 322 324 325 329 330 328 328 328 330 331 331 331 331 332 332 331 331 330 329 329 329 331 331 333 331 331 331 331 330 326 328 332 333 334 332 332 332 332 332 329 330 328 328 324 322 319 318 320 298 296 295 295 295 294 293 296
321 322 320 319 321 319 323 325 326 327 325 326 326 327 329 331 330 331 330 330 329 330 331 328 326 325 325 325 325 323 323 323 326 327 326 327 326 327 327 329 330 331 331 330 330 331 329 330 329 327 327 327 328 329 328 330 330 331 330 329 328 328 327 331 334 332 331 335 334 333 337 337 333 333 333 329 323 322 319 317 320 309 300 294 295 297 293
321 324 322 317 317 317 323 322 320 325 324 326 327 328 328 329 333 329 331 331 329 329 330 327 328 328 328 326 326 325 324 325 327 329 327 326 326 327 329 330 329 330 330 330 330 329 328 330 328 326 325 324 326 326 326 328 330 331 329 329 331 327 325 329 333 333 335 332 330 335 334 331 331 329 333 330 329 325 323 320 320 321 319 318 302 294 312
323 324 323 320 318 316 320 324 324 324 324 325 327 326 326 327 326 327 326 327 328 329 329 328 325 326 327 327 326 326 326 326 325 327 326 326 327 329 330 331 331 331 330 328 328 329 329 327 325 324 323 323 323 324 321 321 324 326 329 328 326 330 326 326 330 333 334 332 331 331 329 329 331 328 330 329 327 328 328 330 329 326 323 322 320 308 297
321 322 325 325 325 325 326 324 326 324 325 327 327 326 325 323 323 324 324 325 327 329 328 330 331 331 329 327 328 327 326 325 326 326 329 330 330 330 331 330 330 329 328 326 324 326 325 325 324 322 322 325 324 323 320 320 322 322 321 320 321 322 328 328 329 329 329 331 332 330 325 323 325 328 328 328 328 327 329 333 329 327 326 323 320 317 314
319 321 322 324 324 322 323 321 321 322 323 325 323 324 324 322 321 322 324 325 326 325 327 328 328 329 329 327 328 327 326 325 327 328 328 330 331 331 329 330 327 327 326 324 324 325 323 322 321 320 319 320 322 323 322 322 324 324 323 320 317 322 325 325 325 327 329 331 325 327 330 326 333 331 327 327 329 329 326 330 331 329 326 325 324 319 318
326 324 323 324 324 324 320 323 325 322 325 325 324 324 322 322 322 323 325 327 328 327 328 327 328 327 327 327 329 330 329 328 329 329 329 330 331 329 328 327 322 321 321 322 323 322 322 322 321 320 320 319 318 323 323 322 322 321 322 323 325 327 325 324 324 320 321 323 324 325 327 326 325 326 324 324 324 326 328 326 328 326 329 328 325 324 324
318 320 322 322 324 325 322 322 326 322 322 323 322 321 321 321 322 323 325 326 328 329 329 328 328 327 328 330 330 331 331 330 329 328 326 325 324 326 327 327 326 324 321 323 321 322 322 322 321 320 323 321 321 321 323 322 322 321 321 322 320 325 322 324 322 322 324 324 322 323 323 323 321 324 324 324 323 323 323 321 322 322 321 322 324 326 327
317 316 316 319 323 323 324 325 321 322 322 321 322 324 325 323 326 327 328 329 328 332 329 329 330 331 331 331 330 329 329 330 329 326 323 323 323 325 325 322 323 324 323 323 322 322 323 322 320 320 321 322 319 319 318 319 322 321 320 319 319 322 326 322 321 320 318 317 319 321 322 323 324 323 323 324 324 323 321 321 321 322 322 323 324 325 322
320 321 322 323 324 324 325 325 324 324 325 323 323 324 324 325 329 330 330 331 331 330 330 331 331 330 329 328 329 329 327 324 322 322 323 323 323 324 325 324 325 324 323 323 321 320 321 321 322 322 320 321 317 317 321 321 321 324 324 320 319 318 319 320 323 322 320 319 321 325 323 322 324 321 322 322 322 321 321 320 319 320 319 320 322 319 307
323 322 321 320 322 328 327 329 326 322 322 322 321 323 327 328 328 327 328 331 330 333 334 333 333 331 330 328 327 327 324 321 321 323 324 324 325 326 325 324 325 324 323 323 324 324 324 323 321 318 314 319 319 319 321 319 317 320 322 322 321 319 319 320 316 316 316 318 321 320 322 321 320 320 321 321 321 322 320 320 319 318 319 320 320 320 318
324 323 323 323 326 325 326 327 325 324 322 322 322 324 325 327 327 329 328 328 331 333 333 334 334 332 331 329 327 324 323 321 323 323 324 325 326 326 326 324 323 321 321 320 322 324 324 323 320 316 314 315 317 321 320 316 316 319 323 317 316 317 319 318 318 316 318 318 318 319 318 319 318 318 319 320 320 321 319 318 317 317 316 317 318 319 321
327 326 325 323 327 326 325 327 327 326 326 326 326 325 328 329 329 330 329 329 332 332 333 333 330 330 329 329 328 325 324 324 323 324 325 326 326 326 325 323 323 321 321 318 322 321 322 322 319 314 314 318 320 320 321 319 318 316 318 317 318 318 316 316 318 320 319 325 318 320 318 317 318 319 320 318 316 317 316 315 315 317 315 316 316 317 317
324 325 326 329 328 326 326 327 332 330 327 325 324 323 327 330 331 330 328 329 334 333 333 333 333 331 329 329 326 323 322 323 323 325 326 326 326 324 323 322 320 320 316 321 325 324 322 321 319 318 317 319 318 319 319 318 316 314 317 317 317 316 315 314 315 315 316 316 318 318 317 314 312 313 314 316 318 316 315 315 315 314 315 315 315 316 316
321 324 327 327 327 328 328 328 331 331 328 326 327 327 333 330 330 331 330 331 333 331 331 331 329 328 327 325 322 322 322 323 324 323 323 324 325 323 322 323 324 325 325 326 326 324 322 323 321 321 321 320 318 316 319 318 314 314 316 317 315 314 314 314 313 315 317 318 315 314 315 312 311 312 313 314 315 315 316 315 314 315 314 314 314 314 314
322 323 324 326 327 328 327 326 325 325 328 329 328 329 331 329 330 330 330 329 331 331 331 330 329 326 324 323 322 322 324 325 325 325 325 325 325 323 323 325 328 327 326 325 325 324 322 320 319 318 320 321 319 319 320 315 314 315 318 318 316 314 314 314 312 312 312 314 314 314 314 314 313 313 313 313 313 313 313 313 314 314 314 314 314 314 314
324 325 325 325 326 327 326 325 324 325 325 326 329 334 331 330 331 329 329 330 332 332 332 331 328 324 322 322 323 324 325 325 326 326 327 325 322 322 317 323 326 326 324 322 324 322 321 319 317 316 320 321 320 318 319 317 316 314 316 314 312 313 313 312 312 312 312 312 313 311 312 312 311 312 313 312 312 312 312 312 312 313 313 314 312 313 313
325 325 325 324 328 327 327 326 325 324 325 328 332 332 330 330 328 325 329 331 331 331 331 329 326 323 323 324 323 324 324 325 326 326 326 325 323 319 316 319 325 325 324 323 323 321 319 317 315 315 317 318 319 319 318 316 315 316 315 314 313 314 312 312 313 311 313 312 311 311 312 311 311 311 311 311 311 312 311 312 311 312 313 312 312 311 311
324 323 323 323 329 328 327 327 326 325 325 325 324 328 330 329 327 327 330 330 330 330 330 327 325 324 323 324 324 324 324 325 325 324 324 324 326 328 324 322 324 323 324 321 320 318 317 315 316 314 319 317 316 315 316 313 314 314 314 313 313 312 310 311 312 310 310 312 312 312 312 311 311 311 310 311 311 310 310 310 310 309 310 311 311 311 311
323 323 324 325 326 328 328 328 327 324 323 325 329 330 328 327 328 329 330 329 329 329 328 325 325 324 323 324 323 323 323 323 323 322 321 321 324 326 328 324 322 322 322 318 319 316 316 316 317 318 318 318 317 315 314 313 313 313 313 312 312 313 311 312 312 311 310 310 310 310 310 312 310 309 311 309 309 309 310 309 309 308 309 310 310 309 309
323 325 325 326 328 328 329 328 326 325 325 329 328 320 322 325 328 330 330 329 328 328 326 324 324 323 323 323 324 324 325 325 324 322 320 317 318 320 324 324 320 319 319 318 317 314 314 318 317 319 318 318 316 314 313 312 312 313 312 311 312 310 310 310 310 311 311 311 311 311 311 310 309 310 310 309 310 308 307 307 308 307 308 308 307 308 309
324 324 326 326 327 329 330 330 328 331 331 326 324 321 321 326 330 331 331 329 328 327 327 325 325 325 325 324 326 326 325 324 324 325 327 324 321 323 322 322 320 319 319 318 315 315 317 319 318 317 316 316 315 312 311 311 312 312 312 310 311 311 310 310 312 311 311 311 311 310 310 310 309 308 309 307 307 307 307 307 306 307 308 308 309 307 306
325 324 325 327 327 328 327 327 325 324 325 323 320 323 326 326 329 331 331 330 329 328 329 327 328 328 328 327 325 324 321 321 322 324 322 322 322 321 321 322 318 316 316 312 313 316 314 315 315 316 315 315 312 312 310 311 312 312 311 311 311 310 310 311 312 312 310 309 309 308 308 308 307 309 308 309 308 307 307 307 307 307 308 309 308 308 307
326 324 324 327 328 327 325 324 323 321 322 320 321 323 325 330 332 331 331 330 329 330 329 329 328 328 329 328 328 327 325 322 317 318 321 320 319 318 317 316 315 317 317 317 316 317 317 316 316 314 315 314 312 311 312 313 313 312 311 311 313 311 310 310 308 309 309 307 307 310 307 306 305 307 309 308 307 308 307 307 306 306 308 307 307 307 307
325 324 324 326 325 324 321 320 320 321 322 324 324 326 328 330 331 331 330 330 329 328 326 326 327 327 326 326 326 324 325 326 324 319 321 321 319 318 317 318 319 317 314 314 315 314 315 315 315 314 313 313 311 311 312 312 313 311 311 310 310 311 312 310 311 311 310 309 308 308 308 308 308 309 308 307 308 307 307 308 309 309 307 307 306 307 307
324 324 323 321 321 323 324 321 319 321 323 324 328 330 330 328 325 325 327 327 327 325 325 324 323 325 325 324 324 324 325 325 324 323 321 320 318 318 316 315 315 315 314 313 316 314 314 314 313 313 311 311 311 312 313 313 312 311 312 311 311 311 310 309 308 308 308 310 309 308 308 308 308 308 309 308 308 307 308 307 308 310 309 307 307 307 306
323 322 322 322 324 325 326 324 321 319 319 321 325 329 327 326 325 324 325 325 324 323 322 322 323 323 323 322 321 320 321 321 320 321 318 318 319 317 317 315 313 313 314 314 315 314 313 313 313 312 311 311 311 312 312 312 312 311 311 311 311 310 309 308 307 307 307 307 308 308 310 308 309 310 308 308 308 308 308 307 308 307 307 307 307 308 307
324 323 322 321 322 324 324 324 323 321 321 322 326 324 325 325 324 324 325 324 323 322 322 321 320 321 321 319 319 319 319 319 318 317 318 317 317 316 315 315 312 311 312 314 315 315 313 313 313 312 311 310 311 312 314 314 311 311 310 311 310 309 311 309 308 308 310 310 308 308 308 309 309 308 308 309 309 307 309 308 310 309 308 308 308 309 309
Wind_Speed
8 9 10 11 9 4 7 9 6 5 5 7 9 10 2 10 5 5 6 1 3 5 3 3 5 8 10 9 11 5 2 4 4 6 7 8 7 6 6 7 6 8 10 9 10 7 6 7 6 4 2 5 4 4 4 4 3 4 3 3 4 5 5 4 3 3 2 3 3 4 4 3 3 4 3 2 2 3 3 4 5 4 3 7 8 4 8
9 8 7 9 8 8 7 8 6 2 3 2 7 8 9 6 6 5 7 7 6 3 4 3 5 5 10 13 11 5 4 3 4 8 9 8 7 7 8 8 8 8 8 9 9 10 8 6 7 6 6 6 4 2 3 4 3 4 4 3 3 1 1 2 2 2 2 2 1 2 2 2 2 2 2 3 3 4 4 4 5 3 2 2 6 8 7
6 6 6 9 9 4 6 8 9 9 1 5 7 9 7 6 6 5 5 8 7 4 4 5 5 6 9 11 13 13 9 5 7 9 11 10 9 8 8 7 8 7 7 7 7 7 6 6 4 5 5 5 5 6 5 4 3 2 2 1 1 1 2 3 3 4 2 1 1 1 1 1 1 1 2 3 4 4 3 3 4 3 3 2 5 5 7
5 3 5 9 8 5 5 6 8 4 5 5 6 6 8 7 2 4 2 2 5 5 4 6 8 7 9 11 11 10 10 10 6 5 9 9 10 10 8 7 7 8 8 7 7 6 6 5 5 4 5 5 5 4 4 5 4 1 3 3 2 2 2 2 2 1 2 4 4 4 3 2 2 2 2 2 3 3 4 3 3 3 3 3 3 4 5
5 4 4 4 8 5 5 6 4 7 5 8 5 7 12 2 7 5 5 4 3 7 8 7 6 7 8 11 11 10 9 8 9 9 9 9 9 8 7 7 7 7 6 6 5 5 5 5 5 4 4 4 5 5 4 4 4 5 4 2 1 2 1 2 1 2 2 1 2 4 4 3 3 2 2 3 4 4 4 3 3 2 3 2 1 3 6
5 3 2 4 4 7 4 5 8 4 3 7 8 2 8 5 5 3 0 5 2 7 8 7 7 6 7 9 10 9 8 8 9 9 8 9 9 9 8 7 7 6 5 5 5 6 5 5 5 4 4 4 2 2 3 3 3 3 4 2 1 2 1 1 2 1 2 3 2 3 3 3 4 4 3 4 7 6 5 3 1 1 1 2 1 4 6
7 1 3 4 6 4 9 5 5 2 4 7 5 14 12 6 8 4 3 7 2 4 3 6 8 7 9 9 11 10 8 8 8 9 8 8 9 10 8 8 7 6 6 7 7 7 7 6 6 6 6 4 3 3 2 1 0 2 2 3 4 2 3 2 2 2 3 2 3 4 3 4 2 3 4 3 5 2 3 5 3 2 3 3 1 4 7
4 5 5 2 5 2 8 4 5 5 7 8 10 8 13 8 8 7 6 8 6 6 6 9 8 9 9 10 10 9 9 8 9 9 7 4 8 11 8 8 7 7 8 7 7 7 7 7 7 7 6 6 7 8 8 9 8 7 7 7 6 6 5 4 2 2 1 3 5 6 4 4 4 3 3 5 3 4 1 4 3 4 4 4 4 3 3
7 4 6 5 7 7 8 6 8 7 7 9 8 7 4 8 6 7 8 8 6 8 8 9 10 9 8 8 5 6 7 8 8 9 8 8 11 11 10 9 8 9 9 9 9 9 8 8 8 7 6 6 7 7 8 7 7 7 7 6 5 5 5 5 5 6 5 6 5 4 3 4 4 3 5 5 4 3 2 3 3 5 6 5 6 6 9
4 6 7 4 8 8 7 9 7 9 12 10 2 4 8 7 4 5 9 9 4 5 8 7 9 7 6 7 6 2 6 8 8 5 6 9 9 9 10 9 9 9 12 11 11 10 11 10 7 5 5 5 5 6 6 5 7 7 7 7 6 6 7 7 7 6 6 6 6 8 6 4 4 3 4 3 3 1 4 4 4 6 6 7 8 9 10
7 8 8 4 7 6 3 11 11 10 7 3 3 3 4 3 4 2 7 8 5 3 8 6 3 2 3 5 6 5 6 7 8 7 6 11 12 10 9 9 9 10 11 12 12 12 12 12 10 10 9 8 7 7 7 7 7 7 8 7 7 7 7 6 6 7 7 7 8 8 8 8 6 6 6 6 5 6 6 6 7 6 7 8 9 9 8
7 7 6 7 3 4 4 7 10 7 4 7 4 7 4 7 10 7 4 6 6 4 1 4 5 4 3 5 8 7 7 7 8 9 7 8 17 16 13 9 10 10 11 11 12 11 11 10 10 11 12 11 10 9 9 9 10 9 8 8 6 5 5 5 6 7 6 8 9 8 8 9 8 7 6 7 8 8 7 7 7 8 8 8 9 7 8
8 9 6 6 5 5 7 4 2 4 2 2 7 5 4 4 11 7 2 4 4 4 4 4 0 5 4 3 3 7 5 4 7 10 7 8 14 13 11 9 7 6 9 13 10 10 8 9 10 10 11 11 10 9 8 8 10 9 7 7 7 7 7 8 9 9 7 7 8 9 9 10 8 7 7 7 7 7 7 6 7 7 6 6 6 6 5
9 7 9 6 6 4 7 3 6 6 4 7 3 6 4 6 12 13 9 9 3 5 8 5 7 7 4 4 5 6 6 7 9 9 8 9 10 10 8 9 9 9 9 10 12 13 11 9 10 10 9 9 8 8 9 10 8 5 5 5 5 6 8 8 8 8 8 7 8 8 8 8 8 7 6 7 6 6 6 6 7 7 6 6 6 5 5
7 6 8 6 3 3 1 3 6 9 6 4 5 5 7 7 9 18 15 11 11 9 7 8 7 9 7 9 5 7 8 8 9 8 7 7 8 8 8 8 10 10 10 10 10 11 11 11 9 9 11 10 9 9 10 9 8 8 7 5 5 5 6 8 8 8 8 9 8 7 8 8 9 8 7 7 7 7 7 7 7 7 6 5 5 5 5
7 6 6 2 6 4 4 5 2 6 7 5 5 5 6 5 8 10 10 12 14 12 9 9 8 10 12 9 8 8 8 8 8 8 7 7 7 7 9 10 10 11 10 11 11 11 10 10 9 9 9 8 8 9 9 7 7 6 5 5 6 7 6 5 5 8 8 8 8 8 9 8 8 7 7 7 6 6 6 6 6 5 4 4 4 5 4
5 7 5 3 2 4 9 9 8 8 7 6 6 4 6 6 8 8 9 11 12 13 12 9 9 9 10 10 10 8 10 9 8 8 8 8 9 9 9 9 9 10 10 11 11 11 10 10 9 7 7 7 8 9 6 5 6 6 6 6 4 4 5 6 7 8 7 5 6 7 7 7 6 6 7 6 6 5 5 6 6 5 4 4 4 4 4
4 4 4 4 3 2 6 9 7 8 8 7 4 4 6 6 7 7 10 10 10 12 12 9 8 9 10 11 11 11 10 9 9 8 8 9 9 10 9 9 10 10 10 10 11 12 12 11 9 7 7 7 7 6 5 5 6 6 6 5 5 6 6 6 6 6 6 7 7 6 6 5 5 4 6 6 4 3 4 5 5 5 3 3 3 3 4
2 3 7 5 4 6 5 6 7 7 6 6 4 5 6 8 8 7 10 10 9 11 13 12 11 9 9 7 9 8 7 8 8 9 9 9 9 9 9 8 8 8 9 10 10 10 9 9 9 10 10 9 7 5 4 6 5 3 4 5 4 4 4 6 6 6 7 6 7 9 10 8 7 6 6 8 8 7 8 7 7 6 5 4 3 3 5
6 1 5 6 7 4 3 5 4 5 8 8 6 5 5 6 7 8 8 11 9 11 11 11 12 12 10 12 10 10 9 8 7 6 8 9 9 8 7 7 8 9 9 10 10 10 9 9 10 10 10 10 10 9 8 7 6 5 5 4 5 5 7 5 5 6 5 9 9 8 9 9 8 9 8 8 8 8 7 6 6 4 4 4 5 5 6
5 3 2 2 1 3 2 1 1 1 9 9 8 7 6 5 9 11 11 11 11 10 11 12 10 9 11 12 12 12 11 10 9 9 8 7 7 7 9 9 8 7 8 9 9 9 8 8 8 9 9 9 9 9 8 7 6 6 6 8 9 10 7 6 5 4 7 7 7 7 7 8 8 7 6 6 6 7 7 5 5 4 5 6 6 6 6
6 5 4 7 6 4 5 8 6 6 11 13 9 7 7 6 7 9 11 10 10 10 12 12 10 10 11 12 11 12 11 11 10 10 9 9 10 10 9 9 10 10 9 9 9 9 7 7 7 7 8 7 8 8 7 6 6 5 5 4 5 7 6 8 8 6 7 7 6 6 7 7 7 7 9 12 9 6 5 8 10 9 8 6 3 4 6
4 2 2 6 3 3 1 2 7 9 8 9 11 12 12 9 7 7 12 11 10 9 12 12 13 11 12 11 11 12 11 11 11 11 11 10 10 10 10 10 10 9 9 9 9 8 7 6 6 7 6 7 6 7 6 6 6 6 5 5 2 6 6 6 6 7 6 6 6 6 6 6 6 5 5 7 10 11 9 7 7 7 9 9 11 10 5
8 1 3 6 2 6 3 2 9 8 8 8 7 8 12 14 13 11 10 9 10 5 8 11 11 13 12 12 12 12 13 13 12 11 11 11 10 10 10 9 9 9 9 9 8 8 7 6 6 6 7 6 5 6 6 5 5 5 6 4 4 5 6 5 4 4 4 4 5 5 5 4 4 5 4 5 4 5 6 7 6 8 10 11 11 11 11
6 7 2 3 5 4 6 5 4 7 7 7 8 9 9 9 9 12 10 8 7 7 8 11 13 11 13 13 13 13 12 13 12 12 10 9 10 9 9 10 9 8 8 7 7 7 6 6 6 6 6 5 5 7 5 6 5 5 4 5 7 7 5 4 4 3 4 3 3 3 4 5 5 4 4 5 5 4 3 5 6 7 9 9 8 8 10
10 8 4 2 2 2 7 9 7 6 6 6 7 8 8 8 8 13 13 10 9 9 10 12 12 12 11 11 12 13 13 13 12 11 10 10 9 8 9 9 9 8 8 7 6 6 7 6 6 7 7 7 7 6 6 6 4 3 4 3 5 3 3 3 2 1 3 1 3 3 2 3 0 4 4 4 6 5 5 4 1 2 4 5 5 5 5
4 9 9 7 6 6 6 6 4 6 7 7 9 8 9 8 8 10 13 12 12 11 10 12 11 11 10 12 13 13 13 12 11 8 9 9 9 8 8 7 8 8 8 7 6 6 7 6 7 7 7 7 6 6 6 6 3 3 2 1 4 3 4 4 2 2 1 2 2 2 3 4 2 4 1 2 3 6 7 6 5 5 5 2 1 1 2
4 4 6 8 4 5 6 6 6 7 8 9 10 10 10 9 9 11 11 11 10 12 11 12 12 12 11 11 11 12 12 13 10 8 8 8 8 8 8 9 9 8 8 7 6 6 6 6 6 6 6 6 5 4 5 5 3 4 4 3 2 3 4 3 4 3 2 4 3 4 5 5 4 5 1 3 3 3 3 4 5 7 6 5 4 3 3
4 4 2 2 6 9 2 3 6 7 8 10 10 9 11 12 11 11 11 11 10 10 10 10 9 9 10 10 10 11 11 11 10 9 7 7 8 8 8 9 8 9 7 6 6 5 5 5 6 6 6 5 5 5 5 4 3 4 3 5 5 6 6 7 7 6 5 3 3 3 1 2 3 5 5 4 2 2 2 1 3 2 6 6 5 3 2
4 2 2 4 7 9 5 7 7 9 9 10 11 10 11 11 11 11 11 12 11 11 11 11 10 9 10 10 10 10 11 11 10 9 10 9 8 8 8 7 8 7 7 6 5 5 5 4 4 5 5 5 5 4 4 3 3 3 3 2 4 3 5 4 4 5 5 4 3 4 2 2 4 4 4 4 3 3 2 2 1 2 5 7 6 6 6
4 1 0 2 6 9 8 7 6 8 7 9 10 10 11 12 11 11 10 10 10 10 12 12 10 11 11 10 10 8 8 11 10 10 10 9 7 7 7 6 6 6 6 5 5 4 4 5 5 5 4 5 5 2 2 3 3 3 3 3 2 6 7 6 4 2 3 3 4 3 4 5 3 3 2 3 3 2 3 3 3 2 2 6 7 6 6
5 5 6 6 5 4 4 8 10 6 8 10 11 12 12 12 12 12 12 11 11 11 12 12 12 11 9 9 9 7 9 10 10 10 10 8 8 6 5 5 8 8 7 6 5 4 4 4 5 4 3 3 2 3 2 3 3 3 3 4 2 5 3 2 1 1 2 2 2 4 5 5 4 3 2 4 5 4 3 5 6 7 6 6 6 6 7
7 8 9 9 7 7 3 6 4 9 10 12 10 9 9 10 10 11 12 11 11 10 11 10 10 9 9 9 8 11 11 10 9 10 10 9 8 7 7 7 7 6 6 5 5 4 4 5 6 5 3 2 3 4 4 3 2 2 3 3 4 2 5 4 3 1 2 2 3 3 3 2 3 5 4 3 2 5 5 4 4 4 5 4 5 4 4
5 5 5 5 7 7 8 8 7 4 8 9 10 9 9 8 10 10 10 10 10 12 10 10 10 10 10 10 10 11 12 11 9 9 9 9 8 8 8 8 7 7 6 5 6 5 5 5 4 4 2 3 4 2 2 2 1 3 3 2 3 3 3 2 4 3 2 3 2 2 1 1 2 3 3 2 3 3 3 4 4 3 4 3 6 4 5
6 6 7 11 9 8 6 5 8 8 3 10 10 12 8 8 12 12 11 10 11 8 9 9 10 11 11 12 12 12 12 11 11 10 9 8 8 8 8 8 8 7 5 5 5 5 6 5 5 4 4 3 1 3 4 4 5 4 3 2 2 3 0 1 2 1 1 3 3 3 3 3 6 4 2 3 3 3 3 3 3 3 2 2 5 6 4
7 7 8 8 7 9 8 7 7 8 8 4 11 12 10 9 12 11 14 14 12 11 8 9 9 10 9 11 11 12 11 11 10 10 10 8 8 7 8 8 8 8 6 6 3 6 6 6 7 5 1 2 3 2 5 5 4 3 4 2 2 3 2 1 1 1 2 3 3 3 4 4 3 2 2 2 3 4 3 2 3 4 4 3 3 3 3
9 9 8 8 7 7 9 7 7 5 6 4 4 12 11 8 10 10 12 11 12 12 10 10 8 8 11 11 10 11 10 9 10 9 8 8 8 7 7 7 6 6 6 6 6 6 6 7 8 5 0 2 1 5 5 4 2 3 4 5 5 5 6 3 2 1 1 2 1 2 2 2 4 3 4 4 3 2 4 4 3 4 5 7 5 2 2
13 12 12 9 6 5 4 3 6 9 9 9 9 15 12 8 7 11 11 9 12 12 11 8 8 9 10 10 10 11 11 11 11 10 9 9 8 8 7 6 5 5 5 4 7 6 7 8 7 3 0 0 0 4 6 5 4 3 4 4 4 2 2 2 2 2 2 6 3 2 2 2 4 4 3 3 3 3 3 4 5 6 7 6 6 5 4
13 11 10 9 7 5 3 0 1 6 11 12 11 9 6 8 8 8 8 8 13 13 12 11 11 11 12 11 10 10 11 11 11 12 11 9 8 7 6 5 4 5 7 8 9 7 7 6 4 2 1 1 2 4 4 4 3 2 4 3 2 1 1 2 5 5 4 3 2 3 3 3 5 5 3 2 4 5 3 5 4 3 2 4 5 5 5
12 11 10 9 7 6 5 5 4 3 5 7 9 5 4 6 3 6 8 8 10 13 13 14 13 12 12 12 11 10 10 11 10 10 10 9 7 6 6 6 9 9 8 7 8 8 8 8 4 1 1 1 1 2 4 1 3 3 3 6 5 2 2 3 2 2 2 3 1 4 1 2 2 3 3 4 3 2 4 2 2 2 2 1 2 3 4
7 6 8 9 7 6 7 6 5 5 6 8 8 6 6 7 6 6 8 10 11 12 11 12 12 12 12 11 11 10 9 10 10 10 9 8 7 6 6 7 7 8 7 6 7 8 8 6 4 3 4 4 4 2 3 1 2 3 5 3 2 3 3 1 1 1 3 2 1 4 3 2 2 1 1 3 4 4 2 3 3 3 3 1 2 1 1
8 9 10 9 8 9 8 7 7 7 6 7 3 10 12 11 10 12 9 10 11 11 11 11 12 12 12 11 11 10 10 9 9 10 9 7 7 7 6 7 8 7 11 12 9 8 5 4 3 3 3 3 4 4 2 4 4 4 7 5 1 2 3 3 2 1 2 2 1 2 3 3 2 3 2 1 2 2 2 3 4 3 3 3 6 5 4
10 10 10 9 9 10 9 10 11 12 11 13 14 10 10 10 9 8 8 11 12 11 11 11 12 12 11 10 10 11 9 9 9 10 9 9 5 5 8 9 7 8 11 7 6 4 4 4 5 4 8 7 5 5 2 3 5 5 7 3 2 1 2 4 3 2 4 1 2 6 3 1 2 2 2 2 1 3 4 3 1 1 2 3 3 3 3
10 9 9 9 10 11 10 9 9 11 12 11 11 9 9 9 9 10 11 13 12 12 12 12 11 12 10 10 10 9 9 9 8 8 8 8 7 7 8 8 8 8 10 6 4 3 4 5 5 11 13 10 6 3 1 3 5 6 4 2 2 4 3 3 1 1 3 1 5 6 8 3 2 2 4 2 5 0 1 5 6 5 4 4 4 4 3
9 7 8 8 9 10 9 9 10 11 11 9 9 9 7 8 9 10 12 13 12 12 12 12 11 11 10 9 9 9 9 8 8 9 9 9 9 7 8 12 10 8 8 7 4 3 2 6 10 13 11 11 8 3 2 5 6 8 4 4 3 2 3 3 2 3 4 2 2 2 2 1 4 4 7 8 7 5 8 4 4 4 3 3 5 1 2
9 9 8 7 6 6 6 6 7 6 5 9 10 10 13 13 12 12 13 13 11 12 11 11 11 11 10 9 7 10 10 9 8 8 3 1 4 8 9 10 8 8 8 7 3 4 7 11 12 10 9 9 6 3 4 5 6 5 1 2 3 2 2 3 2 1 1 2 3 4 6 3 5 6 4 4 4 3 3 5 2 2 3 3 2 3 2
6 6 7 8 7 6 4 2 2 2 3 6 7 9 11 12 11 11 11 12 12 12 11 12 11 11 9 9 9 9 10 9 8 7 8 7 9 9 7 10 12 13 9 5 4 7 7 8 8 10 8 7 4 3 4 5 6 4 4 5 5 3 3 3 2 2 2 1 3 4 3 3 3 3 4 1 1 1 3 3 1 4 5 5 6 6 6
4 3 5 7 9 7 6 5 3 6 8 13 13 9 11 13 13 12 12 12 11 11 11 10 9 9 8 9 9 8 8 9 9 8 8 9 8 8 8 7 8 11 11 12 12 11 12 12 11 9 7 6 4 4 6 6 7 4 3 2 2 1 1 2 3 3 2 5 1 2 3 5 4 5 3 3 0 2 4 3 1 1 4 3 3 4 4
3 2 4 5 5 3 5 7 6 5 9 12 16 14 11 9 10 11 11 10 11 11 11 11 10 8 9 9 9 9 7 6 6 8 7 9 8 8 8 10 12 11 8 7 8 7 9 10 9 8 5 3 4 5 5 7 6 3 3 3 3 1 1 4 6 4 2 3 3 3 2 3 2 3 2 2 3 3 3 4 3 4 4 3 3 3 3
5 3 5 6 6 7 7 7 8 5 6 11 10 9 10 11 9 7 8 9 9 10 10 9 8 8 8 9 8 7 7 6 6 9 8 9 9 7 9 9 8 8 7 7 9 8 9 11 8 8 5 4 4 4 6 8 3 2 2 2 3 4 6 4 3 5 4 3 3 1 1 3 3 3 2 1 2 3 2 2 4 2 6 1 2 2 2
5 6 4 5 7 7 6 7 9 10 5 4 6 10 10 11 10 10 10 11 10 9 10 10 9 9 9 9 8 8 8 8 8 8 7 8 7 9 9 9 9 7 6 5 8 8 7 6 5 5 4 4 5 5 5 3 2 5 3 3 4 2 4 2 2 2 3 3 4 2 2 3 3 3 3 3 2 1 2 3 3 3 4 4 3 3 3
6 6 7 5 4 6 8 8 10 11 11 9 4 7 9 10 10 11 10 12 12 12 12 13 11 9 9 9 9 9 8 9 9 9 8 9 9 8 8 10 7 8 6 5 8 8 6 6 7 7 6 6 5 6 3 2 2 3 4 2 3 3 2 3 3 4 5 6 3 1 2 3 3 3 3 3 2 1 1 2 2 3 3 3 4 3 3
Wind_Direction
295 292 294 292 282 274 292 275 252 295 317 282 277 287 319 311 265 279 161 95 139 123 137 132 109 125 120 123 132 206 49 97 109 106 105 96 98 97 105 99 84 72 78 86 100 88 85 126 147 162 126 107 88 32 33 39 45 66 97 140 163 169 167 198 194 215 182 130 118 136 166 205 230 242 250 293 327 326 329 308 297 308 338 0 347 329 36
288 273 298 297 321 316 303 298 302 205 275 8 307 281 259 271 351 52 118 103 121 127 97 94 107 100 106 114 121 126 84 37 78 102 90 82 77 83 94 94 89 80 70 65 67 81 87 55 34 35 49 78 102 100 38 40 23 5 22 37 31 16 230 213 219 212 164 125 144 160 187 205 243 286 300 311 323 334 332 332 321 337 344 20 43 55 79
300 300 290 292 280 276 278 274 265 276 319 352 353 341 325 311 96 91 145 158 128 94 91 120 106 82 84 97 97 105 90 63 68 93 94 98 102 97 89 85 83 82 73 67 67 62 59 67 66 46 51 53 47 75 84 103 91 32 349 215 214 273 9 4 19 19 16 232 255 262 255 321 350 334 329 329 332 322 317 318 312 329 334 32 87 90 95
297 250 296 302 286 232 260 284 266 250 38 328 1 330 341 16 350 131 197 211 163 151 159 135 104 109 102 94 95 98 118 128 110 90 100 99 93 87 80 71 68 63 60 63 62 64 67 68 59 50 28 34 43 44 44 50 27 315 235 214 182 130 139 264 67 17 355 355 334 313 313 321 322 328 312 316 310 314 313 307 335 349 29 26 61 92 109
277 285 286 290 284 279 264 244 231 273 124 94 51 360 320 118 270 159 227 246 207 159 165 148 132 125 113 105 101 106 101 103 115 111 102 97 92 92 90 93 91 88 89 81 72 61 58 52 63 70 64 39 22 6 9 24 7 350 344 9 25 14 23 238 113 36 6 340 331 329 321 312 303 309 329 340 350 337 326 1 2 11 31 32 108 133 115
294 345 347 349 295 254 270 5 302 234 169 149 138 200 246 175 198 242 138 320 190 140 171 162 147 131 112 104 104 110 115 112 107 106 111 110 113 110 104 92 85 87 90 91 78 72 64 65 63 69 59 63 64 46 9 4 7 345 341 355 79 91 154 328 39 42 311 305 277 277 295 14 18 12 11 13 358 343 324 303 321 340 77 82 132 104 97
284 220 156 256 268 266 346 303 350 343 256 262 211 180 224 160 155 227 157 113 55 259 260 136 115 113 115 117 118 124 128 126 120 122 127 130 123 111 104 96 95 84 75 76 78 71 64 55 41 41 50 45 58 62 63 75 269 310 319 52 66 74 72 52 331 284 154 109 346 336 17 9 332 308 284 206 209 277 328 306 259 146 94 88 119 113 116
230 273 115 259 234 180 241 257 270 265 266 254 268 211 178 199 159 164 130 115 144 178 134 134 137 128 116 112 110 119 122 132 133 129 131 148 118 108 108 109 116 116 104 98 94 81 68 61 54 49 49 41 48 54 50 57 58 60 57 59 60 66 72 72 51 337 9 45 10 343 354 0 331 284 239 236 190 140 63 330 21 73 30 24 57 348 34
287 268 249 280 105 183 219 221 211 215 228 229 228 258 140 172 141 154 127 116 144 163 143 136 123 125 121 112 112 122 132 126 115 120 129 129 114 115 116 114 109 116 117 99 93 85 78 71 64 60 56 52 60 62 64 66 66 66 64 59 58 68 80 81 73 64 65 122 170 227 284 294 295 345 2 54 64 98 129 299 5 55 71 30 23 61 76
249 280 274 221 166 214 195 219 205 226 239 263 289 253 133 188 161 98 117 129 142 130 133 138 137 145 148 121 112 118 109 106 105 112 101 98 96 97 111 121 117 97 100 108 89 84 85 76 86 99 96 84 79 75 71 68 70 75 72 66 62 63 69 67 72 74 74 72 90 104 111 96 81 72 62 21 28 5 140 149 87 75 66 55 47 47 61
296 263 255 269 294 20 124 173 205 209 248 252 146 238 154 207 225 122 122 142 158 153 148 142 84 45 246 149 128 161 145 136 130 128 141 102 89 96 85 79 71 54 67 79 83 82 76 81 82 81 78 82 87 87 87 82 75 75 74 76 74 70 67 68 74 74 67 70 85 83 79 80 80 79 87 80 54 50 56 57 62 58 58 65 63 57 62
252 280 291 287 333 122 219 177 213 214 225 229 210 244 150 144 160 203 165 147 155 151 157 55 96 137 231 165 134 156 135 150 138 118 109 167 150 130 108 94 98 114 105 75 74 69 72 75 81 85 79 74 69 65 63 70 74 75 76 78 79 68 72 82 85 83 77 75 75 79 82 82 77 78 87 79 75 75 67 66 60 55 55 52 55 49 45
229 215 250 264 129 105 156 192 178 219 248 191 237 259 92 129 123 163 177 92 73 53 53 110 269 238 296 315 174 140 122 93 85 97 104 50 42 65 85 98 97 57 93 103 88 84 85 81 76 72 78 81 83 82 81 75 72 73 74 77 76 76 78 77 74 71 70 72 77 79 77 77 76 77 70 76 77 79 75 69 72 70 69 67 67 63 56
265 268 263 255 67 357 1 306 8 55 157 232 282 82 107 105 111 130 126 114 136 146 149 164 217 213 239 277 235 142 136 111 84 76 78 79 85 94 103 107 104 104 86 80 112 121 114 95 91 90 84 81 79 79 78 77 81 91 97 84 83 97 94 85 84 85 86 80 78 80 81 81 82 75 76 80 81 82 82 80 77 76 77 75 78 79 71
237 249 279 293 245 119 301 51 65 12 308 92 133 127 120 112 112 128 140 156 182 170 165 178 161 141 156 213 162 91 80 88 97 102 104 108 116 111 113 111 107 101 95 90 75 59 65 76 81 82 83 74 72 74 73 70 71 62 53 70 102 99 94 92 92 95 95 91 87 84 85 90 90 88 86 86 86 88 84 79 80 86 93 100 89 77 71
278 230 246 64 36 136 97 72 62 87 91 125 122 144 124 141 129 118 133 151 161 160 145 145 143 147 157 154 133 144 130 108 115 113 116 126 128 118 97 94 91 91 93 90 88 87 81 72 71 75 74 72 70 69 64 57 61 65 67 63 51 51 51 58 96 105 96 90 99 112 114 107 100 101 101 101 105 111 113 103 103 102 88 84 78 82 83
332 19 61 190 38 17 81 95 119 114 130 145 148 145 141 151 111 114 128 130 141 140 144 153 151 149 158 150 151 139 124 137 135 137 138 125 115 110 108 99 97 98 98 99 100 97 92 90 88 86 82 84 83 78 75 64 57 60 52 39 44 68 79 76 52 45 49 71 98 104 102 99 102 98 95 100 104 117 110 110 113 108 117 113 109 109 99
313 248 118 119 202 265 112 128 118 149 150 152 161 146 138 117 126 142 133 137 134 139 147 147 158 158 155 158 145 142 151 148 139 130 118 106 101 100 103 108 111 113 113 111 110 108 107 107 105 105 99 88 79 77 80 76 75 70 66 62 54 46 44 34 47 84 92 76 59 61 72 76 80 98 111 106 88 78 95 109 105 111 110 103 117 121 115
301 246 154 216 210 154 248 110 132 129 151 137 149 128 121 129 140 123 122 135 153 142 151 156 154 165 178 158 129 138 127 125 135 135 130 132 129 119 107 106 102 96 98 98 96 95 98 113 123 123 119 114 120 136 103 73 59 83 127 131 121 114 96 77 61 41 31 37 50 42 29 40 47 51 47 52 46 33 21 32 59 51 42 34 30 72 90
223 3 25 356 31 75 81 116 125 161 129 126 124 126 120 124 126 128 141 139 161 152 147 149 154 170 163 131 121 118 120 133 139 124 119 112 112 114 118 112 104 104 95 90 82 76 65 49 46 57 68 69 62 60 66 64 57 34 21 21 75 85 81 95 109 98 82 63 58 53 46 39 33 24 34 49 54 39 25 15 19 40 81 54 39 41 45
216 143 181 311 42 15 315 177 115 159 141 138 142 148 151 158 145 150 161 156 159 160 149 149 161 167 145 134 140 141 141 136 124 112 105 99 98 103 99 88 88 92 102 103 101 96 85 72 66 56 52 62 73 68 57 53 38 31 21 31 18 32 39 65 73 88 87 81 72 76 80 69 56 42 19 25 56 67 43 26 18 12 24 52 38 56 51
234 256 204 184 221 225 185 218 168 143 129 142 155 153 169 183 163 166 155 160 161 166 155 158 160 171 146 147 155 142 140 134 128 127 126 127 120 108 106 106 101 98 91 93 94 92 87 87 82 76 70 59 51 55 54 52 41 34 25 26 52 45 39 24 18 39 69 72 83 98 88 79 77 68 56 54 40 48 60 40 41 20 33 66 9 29 73
276 316 269 142 224 263 322 283 152 144 147 154 162 169 169 187 178 178 151 161 163 168 165 155 175 156 147 155 145 140 140 135 139 140 139 131 129 128 126 124 121 114 111 109 106 100 101 103 96 91 87 80 74 63 51 44 36 34 24 8 40 114 66 42 28 24 43 71 70 61 71 83 86 91 94 55 53 60 67 67 50 48 64 57 46 37 43
289 150 34 334 210 259 136 260 140 151 160 150 165 160 168 173 181 176 164 157 152 164 167 165 164 145 155 152 149 140 137 144 146 145 142 141 132 129 127 124 124 122 123 117 112 112 112 109 109 105 96 91 90 83 72 61 42 38 15 30 39 65 68 76 68 77 60 53 86 101 107 130 123 125 116 108 73 46 70 67 63 60 55 48 44 44 42
314 344 34 171 254 246 87 343 158 155 154 165 169 162 172 165 166 147 158 150 157 163 171 166 145 155 152 154 141 139 146 146 149 147 144 130 136 138 131 127 125 123 118 117 120 123 121 122 115 112 111 101 105 107 96 75 71 49 39 34 29 24 43 48 42 49 101 111 87 79 133 147 152 176 155 145 129 125 49 48 53 55 49 50 52 46 46
352 323 311 326 241 242 118 182 208 151 159 175 149 152 154 161 163 138 143 172 162 184 182 148 148 150 151 143 138 147 147 148 147 145 145 144 146 142 137 133 131 133 130 129 131 131 123 112 93 81 75 74 52 34 70 75 55 82 74 64 64 42 52 35 78 67 81 36 133 123 25 358 276 204 187 136 144 148 150 157 124 32 58 59 61 67 57
312 342 336 279 237 218 198 156 210 189 172 167 150 147 155 151 145 142 153 166 167 167 155 146 147 144 147 137 145 150 148 141 141 149 147 157 150 137 130 135 134 127 122 115 101 88 87 86 82 74 67 56 48 30 37 38 18 354 28 3 132 159 182 177 239 216 191 66 31 109 142 168 187 289 84 99 148 167 175 175 180 171 171 162 7 70 86
314 312 3 336 292 261 207 182 193 167 174 157 150 163 155 147 155 143 154 154 154 151 156 155 151 152 140 145 151 142 137 146 153 153 157 145 129 135 137 136 135 130 121 126 125 119 107 100 94 85 66 45 37 22 18 25 358 350 1 340 309 209 187 200 196 238 116 94 55 40 33 355 345 299 275 174 209 216 201 208 163 163 149 150 155 171 141
248 273 344 323 300 286 287 229 188 186 170 157 161 171 159 170 161 161 159 158 152 144 153 147 145 151 139 150 143 143 152 156 152 154 136 123 134 134 138 139 133 127 126 121 119 118 117 110 100 98 97 94 66 28 11 16 345 9 360 332 332 351 51 22 17 12 55 86 91 92 16 332 315 311 305 295 301 307 338 42 97 54 131 143 142 149 199
236 230 263 289 298 293 233 215 195 194 185 168 173 174 174 179 167 168 158 158 158 157 155 149 156 146 148 147 146 158 163 152 142 137 133 133 131 146 150 141 119 112 112 105 98 101 97 103 105 82 62 76 80 46 13 346 1 31 343 323 297 344 53 40 16 340 350 351 111 156 204 242 250 268 288 290 291 310 291 293 230 205 146 162 176 171 174
136 142 196 287 292 300 279 251 194 199 199 174 187 181 180 181 170 166 159 155 161 160 156 155 155 151 156 149 149 163 148 134 138 139 143 141 133 113 103 121 139 136 118 111 110 106 116 103 90 75 42 12 33 59 42 2 17 345 285 273 184 83 73 63 13 340 315 307 322 273 218 214 233 247 293 322 324 305 277 275 291 274 256 158 190 168 155
217 204 209 227 240 251 65 17 336 258 211 188 190 195 187 185 171 167 159 163 164 159 156 158 159 161 154 145 157 135 125 131 145 144 130 125 127 135 134 111 105 111 116 120 120 119 110 115 102 84 67 43 356 13 42 51 15 311 334 4 340 146 111 181 267 5 319 278 267 310 329 330 314 343 346 0 340 324 352 15 5 356 346 1 48 80 126
217 230 228 218 218 238 204 129 171 279 253 205 200 203 188 183 169 169 162 163 162 157 160 161 159 159 148 145 138 133 141 145 139 127 139 137 133 124 116 115 109 112 121 120 118 116 113 97 95 92 62 48 24 23 24 13 20 329 3 5 340 47 167 175 108 317 239 293 300 278 277 294 14 360 354 345 337 349 347 348 345 340 336 34 97 65 73
222 259 282 253 220 217 192 175 166 221 293 256 212 205 188 171 159 164 160 171 159 165 167 162 157 154 147 151 143 147 148 145 141 147 143 142 136 130 126 120 124 121 114 132 141 136 109 88 85 66 34 28 48 354 75 4 20 321 59 339 348 354 350 6 146 278 296 214 213 253 232 333 296 294 291 331 359 355 329 324 315 320 319 44 101 103 83
216 234 252 270 249 231 218 174 163 169 184 281 244 214 206 178 163 172 154 165 169 170 152 156 157 160 158 156 156 157 155 153 151 147 146 144 143 136 133 130 123 121 122 106 93 93 98 99 79 55 13 15 343 304 63 34 11 338 360 358 319 316 86 195 274 289 316 6 355 350 340 47 44 15 358 356 342 344 321 309 316 304 284 254 132 124 114
202 229 238 241 246 221 198 173 193 174 168 198 300 271 206 187 177 170 166 170 161 144 157 154 165 159 159 154 161 160 157 155 152 148 148 146 143 138 138 138 149 138 138 138 162 123 119 106 104 87 24 333 308 37 57 20 339 332 325 298 265 261 279 46 87 34 342 19 346 358 323 5 344 308 295 298 275 261 271 330 335 329 335 343 26 59 101
198 206 228 234 221 225 222 187 187 165 138 127 245 294 278 203 189 165 164 162 147 145 160 154 150 162 163 162 162 157 155 152 149 151 147 144 140 142 145 145 148 153 149 167 161 150 132 123 123 109 286 273 309 87 96 63 4 320 305 292 266 248 243 194 100 71 227 140 258 258 267 280 269 239 209 194 231 321 353 352 357 3 9 351 339 24 29
203 205 208 201 188 206 236 252 175 146 155 172 203 234 242 265 204 165 169 163 142 148 154 150 150 166 152 158 157 158 160 154 154 150 148 147 147 148 153 153 158 175 182 198 138 126 113 128 124 103 44 254 331 113 104 52 11 312 289 288 293 333 336 327 278 208 118 78 34 331 328 342 314 305 313 340 20 41 52 45 27 18 359 352 346 353 4
231 210 198 193 184 171 150 98 144 179 176 186 206 223 171 169 238 185 165 160 146 149 154 151 167 167 154 162 160 164 160 154 155 151 154 151 151 156 157 170 145 103 87 103 106 112 137 138 123 129 117 35 43 318 35 25 352 305 287 301 329 7 265 30 29 358 4 47 16 11 20 345 327 317 332 355 1 349 26 65 44 12 6 354 348 2 351
236 227 198 185 183 184 180 168 152 195 243 207 196 213 178 134 246 216 165 159 148 156 159 157 167 158 163 164 162 162 155 152 151 153 152 155 159 163 169 141 132 142 144 140 128 134 132 133 131 150 199 211 83 314 117 188 279 267 266 271 266 270 304 64 39 250 265 294 217 171 265 279 264 326 351 333 328 326 346 3 143 148 94 78 43 4 6
242 201 213 213 189 179 177 153 162 207 235 249 209 154 113 140 207 229 182 160 149 155 156 158 161 159 166 163 159 156 153 152 156 150 149 153 159 187 190 159 148 138 154 137 124 127 136 136 153 169 199 178 156 233 270 181 284 267 279 318 357 295 284 270 70 49 296 279 11 338 322 296 298 282 313 6 9 351 320 318 356 2 345 32 74 51 40
247 238 232 221 180 173 175 167 162 174 224 264 254 166 162 163 177 216 197 148 151 155 156 159 158 158 166 160 159 153 159 155 147 141 154 156 175 187 214 137 138 118 104 104 120 126 138 143 160 216 262 212 142 108 14 306 290 289 277 244 132 359 336 307 261 48 240 188 339 264 246 267 314 324 327 287 271 276 332 9 5 338 326 6 51 30 13
255 251 242 225 185 182 182 176 173 176 189 203 208 204 164 166 162 204 196 152 155 156 156 153 154 158 167 161 157 156 154 145 148 149 158 166 175 92 104 124 124 127 134 130 136 161 175 179 173 142 80 65 88 67 30 272 267 277 284 253 168 263 241 277 316 43 310 27 209 200 178 221 308 318 304 281 310 3 3 346 340 313 347 15 25 9 7
261 258 255 227 198 189 190 193 180 183 188 197 204 181 162 167 185 185 157 157 161 160 158 157 158 163 168 163 159 152 149 156 153 158 164 162 124 129 143 138 136 139 133 148 174 204 194 197 143 121 119 119 97 58 330 277 275 274 285 324 176 187 242 272 93 341 254 359 334 15 13 14 111 217 241 233 99 61 342 22 358 14 41 43 24 2 327
259 248 236 226 206 200 182 190 203 198 197 172 118 112 149 203 190 172 160 162 164 161 156 158 159 161 166 168 164 152 154 154 162 158 175 178 173 159 132 132 139 146 152 157 176 207 74 88 114 125 128 130 124 118 252 268 286 290 258 221 194 229 219 260 281 317 353 326 249 321 283 277 331 349 32 29 31 34 62 40 31 1 311 65 70 342 50
244 241 226 203 191 184 187 194 206 226 163 126 135 169 189 200 186 167 162 164 160 159 157 157 159 162 166 168 145 136 147 160 162 166 179 160 186 147 142 143 156 147 143 147 195 122 111 117 111 114 117 117 138 167 236 250 262 285 7 32 322 19 19 342 39 245 10 29 19 47 14 10 36 37 38 28 37 18 64 85 12 324 303 311 358 73 62
259 251 228 205 194 188 167 177 160 50 48 122 153 184 194 193 184 169 162 161 160 157 156 157 159 162 164 156 149 146 158 161 169 142 108 106 99 108 115 121 112 121 138 166 204 140 135 126 128 128 140 148 157 187 217 244 265 247 230 210 213 180 205 148 155 177 202 172 38 21 358 350 5 23 51 24 288 186 208 208 53 351 329 20 21 23 6
293 275 270 216 181 147 107 98 139 181 186 181 188 194 186 182 162 155 159 158 156 149 150 152 158 157 147 138 146 155 160 166 171 140 125 118 120 119 127 141 142 138 110 84 90 110 125 131 135 144 152 153 188 203 231 241 255 243 280 318 26 208 149 130 186 232 131 91 157 242 231 211 207 225 219 125 152 306 354 19 66 194 79 17 1 354 338
2 36 66 62 79 112 153 122 107 164 196 206 191 184 172 141 131 144 151 147 146 148 153 157 158 146 141 148 155 164 159 149 153 146 141 132 135 144 139 127 138 137 141 135 125 126 132 134 143 144 160 197 197 221 241 254 256 164 193 144 196 268 63 13 27 29 56 135 173 210 302 12 352 316 349 5 11 18 0 4 7 49 57 10 345 329 336
106 85 132 143 169 174 163 144 143 151 222 217 191 157 148 140 142 139 137 141 141 146 153 157 152 138 142 148 161 162 135 134 131 126 134 132 136 131 129 142 146 161 169 161 149 138 149 150 154 157 173 198 220 236 251 257 226 175 205 208 239 132 89 74 62 55 25 11 329 24 205 250 220 185 147 248 312 338 341 339 324 104 142 320 335 319 304
145 164 189 190 194 177 158 153 153 141 143 257 234 168 155 156 152 150 152 148 150 149 145 141 138 143 147 150 140 124 125 125 122 125 130 127 124 130 138 145 150 169 189 179 140 144 155 170 170 170 189 215 221 236 251 244 161 151 205 177 201 206 130 157 204 207 208 221 233 253 314 326 339 12 358 345 0 289 273 281 268 286 302 299 296 301 295
168 168 159 178 211 180 156 162 161 156 169 179 213 159 167 156 154 149 152 156 156 152 151 151 151 156 153 141 134 139 139 132 136 137 135 131 136 141 140 142 157 167 178 190 154 154 164 168 160 169 187 199 211 235 186 123 254 179 178 194 177 224 180 163 178 211 205 204 195 253 310 308 313 316 325 325 304 283 244 234 252 273 278 288 286 277 281